Location: NJAA Observatory
(40.6819°N, 74.8979°W)
Time: 00:50:29
(UTC-04:00)

Daily predictions for brighter satellites

Satellite Brightness Start Highest point End
(mag) Time Altitude Azimuth Time Altitude Azimuth Time Altitude Azimuth
Terra 4.4 00:18:59 13° WNW 00:18:59 13° WNW 00:20:03 10° NW
Cosmos 2369 Rocket 4.4 00:20:17 10° WNW 00:22:19 16° WNW 00:22:19 16° WNW
CZ-2C R/B 4.1 00:21:26 10° N 00:25:12 32° NW 00:25:12 32° NW
Mayak 1.6 00:24:34 10° NNE 00:25:22 15° NNE 00:25:22 15° NNE
USA 267 4.2 00:24:03 10° NE 00:30:07 43° NNW 00:33:29 25° W
ADEOS Rocket 3.9 00:35:29 10° NNE 00:40:13 45° NE 00:40:13 45° NE
Lacrosse 4 Rocket 4.5 00:40:35 10° NNE 00:41:43 12° NE 00:41:43 12° NE
ATLAS 5 CENTAUR R/B 4.5 00:38:26 10° WNW 00:40:22 17° WNW 00:40:22 17° WNW
USA 234 4.1 01:05:47 40° WNW 01:05:47 40° WNW 01:09:46 10° NW
SeaSat 1 4.5 01:14:31 23° NNW 01:14:31 23° NNW 01:16:17 10° NNW
Cosmos 2034 Rocket 4.4 02:00:21 59° NNE 02:00:21 59° NNE 02:05:17 10° N
Exosat Rocket 4.5 02:01:39 10° NNW 02:07:51 72° ENE 02:08:14 70° E
Cosmos 1980 Rocket 3.2 02:04:04 10° N 02:09:17 40° ENE 02:09:17 40° ENE
Resurs 1-4 Rocket 3.9 02:05:41 10° NE 02:09:10 23° E 02:09:10 23° E
Cosmos 1697 Rocket 3.6 02:04:47 10° NNW 02:08:43 45° N 02:08:43 45° N
Lacrosse 5 rocket 3.8 02:20:09 22° NNE 02:20:09 22° NNE 02:21:50 10° NNE
Lacrosse 4 Rocket 4.2 02:17:19 10° NNW 02:18:00 14° NNW 02:18:00 14° NNW
Cosmos 2082 Rocket 2.8 02:23:53 51° N 02:23:53 51° N 02:28:10 10° NNE
SL-16 R/B 4.5 02:21:55 10° N 02:26:06 21° NE 02:30:16 10° E
ARIANE 5 R/B 4.4 02:24:09 10° NE 02:28:07 22° E 02:28:16 22° E
SL-08 R/B 4.5 02:33:39 42° NE 02:33:39 42° NE 02:37:37 10° N
NPP 4.1 02:33:15 10° NNE 02:37:46 56° ENE 02:37:46 56° ENE
Cosmos 2322 Rocket 4.3 02:35:05 10° N 02:39:37 24° NE 02:44:06 10° ESE
SL-16 R/B 2.9 02:40:08 54° ESE 02:41:09 61° ENE 02:47:20 10° N
Nadezhda 4 Rocket 4.5 02:36:08 10° NNW 02:40:51 48° NW 02:40:51 48° NW
ATLAS 3B R/B 3.5 02:46:42 38° SE 02:47:35 40° ESE 02:53:59 10° NE
Cosmos 1833 Rocket 3.6 02:52:21 38° NW 02:52:21 38° NW 02:57:01 10° N
Cosmos 1634 Rocket 3.9 02:56:38 82° WNW 02:56:38 82° WNW 03:02:52 10° N
IRS-1D 3.9 02:55:30 10° NNE 03:00:35 57° E 03:00:35 57° E
Cosmos 2279 Rocket 4.1 03:05:16 61° SE 03:06:12 71° E 03:12:26 10° NNE
Cosmos 2026 Rocket 3.8 03:08:24 10° N 03:14:46 76° W 03:15:15 72° SW
Cosmos 1763 Rocket 3.6 03:16:05 70° ESE 03:16:11 70° ESE 03:21:30 10° NNE
ERS-1 4.5 03:11:59 10° NNE 03:16:52 70° E 03:16:52 70° E
CZ-2D R/B 2.0 03:17:05 10° N 03:22:26 76° WNW 03:22:27 76° WNW
ADEOS II 3.9 03:20:38 10° NE 03:24:54 25° E 03:27:57 15° SE
Iridium 4 Rocket 4.5 03:28:31 29° NW 03:28:31 29° NW 03:31:16 10° NNW
NOAA 9 4.5 03:24:53 10° N 03:30:18 77° WNW 03:30:43 72° WSW
Cosmos 1766 4.3 03:26:37 10° N 03:29:05 39° N 03:29:05 39° N
Cosmos 1898 Rocket 4.0 03:30:23 10° NNW 03:34:15 45° WNW 03:34:15 45° WNW
Cosmos 1953 4.4 03:35:17 10° NNE 03:38:39 25° ENE 03:41:51 10° SE
IRS-1C 4.3 03:33:40 10° N 03:38:52 54° WNW 03:39:11 53° W
H-2A R/B 3.8 03:35:02 10° N 03:38:04 30° NW 03:38:04 30° NW
MOZ.5/SAFIR/RUBIN 5/SL-8 3.8 03:42:34 63° WNW 03:42:34 63° WNW 03:46:59 10° NNW
DNEPR-1 R/B 3.7 03:44:39 56° SE 03:44:54 58° ESE 03:49:21 10° NE
Cosmos 1726 Rocket 4.1 03:43:18 10° NNW 03:46:34 44° NW 03:46:34 44° NW
Cosmos 1937 Rocket 3.4 03:42:59 10° NNW 03:48:05 59° WSW 03:48:07 59° WSW
ERBS 4.0 03:48:53 28° ESE 03:48:53 28° ESE 03:51:21 10° ENE
Resurs 1-4 Rocket 2.6 03:44:55 10° N 03:49:50 42° WNW 03:50:15 41° W
Cosmos 2360 Rocket 3.7 03:45:36 10° N 03:50:48 37° ENE 03:55:59 10° SE
Cosmos 2266 Rocket 4.1 03:44:42 10° N 03:50:48 70° E 03:56:24 13° SSE
Cosmos 292 Rocket 3.7 03:50:09 58° S 03:51:04 80° ESE 03:55:53 10° NNE
Cosmos 1980 Rocket 3.6 03:48:25 10° NW 03:51:00 22° WNW 03:51:00 22° WNW
Timation 2 Rocket 3.9 03:52:08 48° WSW 03:53:43 66° WNW 03:59:40 10° NNE
ATLAS CENTAUR R/B 3.5 03:50:51 10° NNW 03:54:47 31° NE 03:58:56 10° ESE
Cosmos 990 Rocket 4.1 03:50:45 10° NNW 03:55:38 50° W 03:55:38 50° W
USA 238 DEB 3.8 03:55:24 40° WSW 03:57:57 68° NW 04:04:55 10° NNE
Lacrosse 5 rocket 4.0 03:56:30 10° NW 03:58:00 12° NNW 03:59:29 10° N
USA 238 3.8 03:55:30 40° WSW 03:58:03 68° NW 04:05:01 10° NNE
Cosmos 2228 3.3 03:57:33 10° NNW 04:01:12 46° WNW 04:01:12 46° WNW
Cosmos 1655 Rocket 4.4 04:00:51 10° NNW 04:06:51 45° W 04:08:43 36° SW
ARIANE 5 R/B 3.0 04:02:26 10° N 04:07:25 46° WNW 04:08:37 39° WSW
Cosmos 2082 Rocket 4.3 04:05:44 11° WNW 04:07:36 13° NW 04:10:00 10° NNW
Cosmos 44 3.7 04:02:36 10° NW 04:07:40 48° WSW 04:09:22 35° SSW
Cosmos 1602 Rocket 3.6 04:07:41 35° S 04:09:23 73° E 04:13:41 10° NNE
Cosmos 1378 3.8 04:08:12 32° SSE 04:09:32 50° E 04:13:04 10° NNE
SL-16 R/B 2.1 04:05:04 10° NNW 04:10:41 64° WSW 04:16:16 10° S
Cosmos 1758 3.1 04:10:13 10° N 04:14:12 85° W 04:15:49 35° S
Meteor 1-21 4.4 04:12:25 37° SW 04:14:18 53° WNW 04:19:47 10° N
Cosmos 2058 Rocket 3.7 04:12:41 10° NNW 04:16:46 37° W 04:16:48 37° W
PSLV R/B 3.3 04:18:34 55° SE 04:18:34 55° SE 04:21:12 10° E
Cosmos 1626 Rocket 3.4 04:18:58 39° SSW 04:20:28 73° W 04:24:48 10° N
SJ 16-02 1.3 04:19:05 10° NNW 04:23:32 83° ENE 04:27:56 10° SSE
Cosmos 2322 Rocket 2.3 04:18:30 10° NNW 04:23:57 51° WSW 04:29:20 10° S
SL-16 R/B 3.8 04:25:12 21° W 04:25:12 21° W 04:29:48 10° NW
UNKNOWN OBJECT B 3.3 04:24:56 10° N 04:28:29 38° WNW 04:29:05 35° W
Cosmos 1470 2.7 04:27:57 10° N 04:31:57 85° W 04:35:37 12° S
Cosmos 1707 2.7 04:30:56 21° S 04:33:19 77° E 04:37:07 10° N
Cosmos 841 Rocket 4.4 04:32:45 26° WSW 04:34:39 33° WNW 04:39:22 10° N
NOSS 3-2 (C) 3.4 04:31:26 25° SW 04:35:04 82° NW 04:41:38 10° NNE
ATLAS 3B R/B 3.3 04:33:58 23° WSW 04:38:13 46° NW 04:44:50 10° NNE
Cosmos 1833 4.2 04:34:45 22° SSW 04:38:38 78° WNW 04:44:26 10° NNE
Cosmos 540 Rocket 3.7 04:36:14 27° SW 04:38:51 52° WNW 04:43:54 10° N
Helios 1A Rocket 4.2 04:35:41 10° NNW 04:39:07 25° WNW 04:40:05 23° W
Cosmos 44 Rocket 4.2 04:45:09 10° NW 04:49:36 30° WSW 04:54:04 10° S
NOSS 3-2 (A) 3.9 04:46:11 21° WSW 04:50:04 49° NW 04:56:27 10° NNE
CZ-4B R/B 3.4 04:49:50 10° NNE 04:53:49 57° E 04:57:34 10° S
CENTAUR R/B 2.8 04:49:52 11° SSW 04:55:28 63° ESE 05:02:06 10° NE
USA 215 3.4 04:54:34 10° NE 05:01:07 74° SE 05:07:23 11° SW
CZ-2D R/B 4.2 05:00:46 10° NW 05:01:25 10° WNW 05:02:05 10° WNW
ADEOS II 2.7 04:59:39 10° N 05:04:29 39° WNW 05:08:41 13° SW
Cosmos 1553 Rocket 4.1 05:03:15 10° S 05:09:40 89° E 05:16:06 10° N
CRYOSAT 2 4.4 05:05:28 10° S 05:10:19 90° NE 05:15:12 10° N
USA 161 3.1 05:08:39 10° SE 05:11:28 39° ENE 05:14:11 10° N
Cosmos 2322 3.7 05:06:01 10° NNW 05:11:42 67° WSW 05:17:21 10° S
Cosmos 1825 Rocket 3.5 05:08:08 10° SSW 05:12:24 64° W 05:16:43 10° N
Cosmos 2237 4.2 05:07:41 10° NNW 05:13:22 68° WSW 05:19:02 10° SSE
Aureole 2 Rocket 3.6 05:11:19 10° NW 05:14:22 25° W 05:17:15 10° SSW
Cosmos 1953 3.6 05:11:34 10° NW 05:14:33 21° W 05:17:10 12° SW
PSLV R/B 3.6 05:13:20 10° N 05:17:09 77° WNW 05:20:52 10° SSW
BREEZE-M DEB (TANK) 3.8 05:11:41 10° WNW 05:20:08 33° WSW 05:23:17 10° S
PSLV R/B 3.8 05:16:51 10° N 05:20:49 46° WNW 05:24:46 10° SW
Delta 2 Rocket 4.5 05:17:48 12° WSW 05:23:04 51° S 05:28:26 10° ESE
Cosmos 1400 Rocket 2.8 05:19:18 10° S 05:23:13 89° E 05:27:14 10° N
Okean O Rocket 1.8 05:20:12 10° NNE 05:24:34 74° ESE 05:28:53 10° S
ERBS 3.8 05:22:03 10° W 05:24:52 26° NW 05:27:47 10° NNE
ATLAS CENTAUR R/B 2.3 05:29:45 10° NW 05:33:45 32° WSW 05:37:56 10° S
Cosmos 2360 Rocket 2.9 05:29:48 10° NW 05:34:40 31° WSW 05:39:31 10° SSW
Cosmos 773 Rocket 4.2 05:31:15 10° SSW 05:36:25 78° ESE 05:41:34 10° NNE
Cosmos 1953 Rocket 3.9 05:34:56 10° SSW 05:39:12 46° W 05:43:29 10° N
